[[{"header":{"parameterUnit":"m.s-1","parameterCategory":1,"la1":30.2991,"la2":30.254,"lo1":-89.0895,"lo2":-89.0444,"dy":0.0017,"dx":0.0017,"nx":28,"ny":28,"refTime":"2025-09-05T21:00:00:Z","depth":0,"parameterNumber":2,"parameterNumberName":"U-component_of_WINDS"},"data":[0,0,0,0,0,0,0,0,0,0,0,0,0,0,0,0,0,0,0,0,0,0,0,0,0,0,0,0,0,0,0,0,0,0,0,0,0,0,0,0,0,0,0,0,0,0,0,0,0,0,0,0,0,0,0,0,0,0,2.0548,2.0549,0,2.0582,2.0583,2.0583,2.0564,2.0563,2.0562,2.0561,2.0592,2.0594,2.0595,0,0,0,0,0,0,0,0,0,0,0,0,0,2.0463,2.0464,2.0548,2.0549,2.0549,2.0582,2.0583,2.0583,2.0564,2.0563,2.0562,2.0561,2.0592,2.0594,2.0596,0,0,0,0,0,0,0,0,0,0,0,0,0,2.0499,2.0465,2.0548,2.0544,2.0544,2.0582,2.0583,2.0583,2.0564,2.0563,2.0562,2.056,2.0591,2.0593,2.0596,2.064,0,0,2.0604,2.0605,0,0,0,0,0,0,0,0,2.0497,2.0502,2.0544,2.0544,2.0544,2.0568,2.0564,2.0602,2.0565,2.0556,2.0561,2.056,2.0585,2.0588,2.0597,2.0641,2.0643,2.0604,2.0605,2.0607,2.0607,0,0,0,0,0,0,0,2.0494,2.05,2.0562,2.0545,2.0545,2.0539,2.0542,2.0571,2.0578,2.0557,2.0556,2.056,2.0585,2.0595,2.0598,2.0643,2.0604,2.0606,2.0608,2.0609,2.0724,2.0725,0,0,0,0,0,0,2.0492,2.0498,2.0561,2.0563,2.0517,2.0541,2.0545,2.0561,2.0578,2.0579,2.0561,2.0559,2.0591,2.0595,2.0599,2.065,2.0607,2.0609,2.061,2.0722,2.0724,2.0726,0,0,0,0,0,0,2.0491,2.0498,2.0559,2.053,2.0538,2.0544,2.0563,2.0563,2.0573,2.0581,2.0582,2.0571,2.059,2.0595,2.063,2.0651,2.061,2.0612,2.072,2.0723,2.0725,2.0754,0,0,0,0,0,0,2.0488,2.0498,2.0515,2.0531,2.0539,2.0591,2.0564,2.0564,2.0578,2.0575,2.059,2.0591,2.0589,2.0626,2.0632,2.0654,2.0614,2.0718,2.0721,2.0724,2.0751,2.0756,2.0762,0,0,0,0,0,2.0485,2.0521,2.0516,2.0524,2.0561,2.0592,2.0597,2.0595,2.058,2.0597,2.0602,2.059,2.0648,2.063,2.0637,2.0659,2.0717,2.072,2.0724,2.0748,2.0755,2.0761,0,0,0,0,0,0,2.0506,2.0523,2.0518,2.056,2.0575,2.0589,2.061,2.0603,2.0621,2.0618,2.0615,2.0618,2.0654,2.066,2.0639,2.0702,2.068,2.0685,2.0696,2.0703,2.0708,2.0705,2.0616,0,0,0,0,0,2.0516,2.0541,2.0554,2.059,2.0598,2.0603,2.0616,2.0614,2.0629,2.0634,2.0642,2.0656,2.0677,2.069,2.071,2.0752,2.0754,2.0771,2.0776,2.0781,2.0784,2.0806,2.0813,2.0737,2.0737,2.0737,0,0,2.0536,2.0549,2.0564,2.0595,2.0606,2.063,2.0608,2.0635,2.0652,2.0638,2.0671,2.0677,2.0692,2.073,2.0748,2.0737,2.0806,2.0785,2.0789,2.079,2.081,2.0817,2.0824,2.0739,2.0739,2.0738,0,0,2.0585,2.0597,2.0628,2.064,2.0658,2.0662,2.0669,2.0684,2.0688,2.0722,2.0711,2.0732,2.0769,2.0779,2.079,2.0843,2.0833,2.085,2.0877,2.0898,2.0904,2.0909,2.0927,2.0933,2.0854,2.0854,2.0854,0,2.0606,2.0644,2.0645,2.0672,2.0685,2.0676,2.0706,2.0717,2.074,2.0749,2.0737,2.0783,2.0792,2.0832,2.0845,2.0855,2.0862,2.0847,2.0904,2.0909,2.0914,2.093,2.0937,2.0856,2.0856,2.0855,2.0855,0,2.0669,2.0696,2.0718,2.0742,2.0758,2.0787,2.0791,2.0806,2.0803,2.0808,2.0841,2.0853,2.0874,2.0884,2.0881,2.0923,2.0916,2.0904,2.0881,2.0923,2.0938,2.0944,2.0858,2.0858,2.0857,2.0857,0,0,2.073,2.0755,2.0763,2.0773,2.0793,2.0812,2.0841,2.0863,2.0876,2.0893,2.0915,2.0947,2.0936,2.0948,2.0946,2.0965,2.1005,2.095,2.095,2.0958,2.105,2.1058,2.1065,2.0999,2.1,2.1001,2.1048,0,2.0778,2.0829,2.083,2.0876,2.0899,2.0891,2.0915,2.0929,2.0934,2.0954,2.0959,2.0981,2.0966,2.0972,2.0991,2.0996,2.1023,2.0993,2.1018,2.1018,2.1012,2.1074,2.1081,2.1125,2.1055,2.1056,2.1057,0,2.084,2.086,2.0909,2.0925,2.0935,2.0957,2.0977,2.0997,2.1012,2.1015,2.1028,2.1024,2.1051,2.103,2.1067,2.1046,2.1057,2.1061,2.1063,2.1063,2.1038,2.1074,2.114,2.1145,2.1066,2.1066,2.1065,0,2.0877,2.0916,2.095,2.096,2.098,2.0995,2.1004,2.1019,2.1032,2.105,2.1058,2.1079,2.1089,2.1105,2.1105,2.109,2.1142,2.1121,2.1143,2.1143,2.1152,2.1151,2.1219,2.1163,2.1163,2.1163,2.1163,0,2.093,2.0959,2.0967,2.0987,2.102,2.1021,2.1053,2.106,2.1073,2.1094,2.1088,2.1108,2.1108,2.1128,2.1129,2.1158,2.1163,2.1165,2.1164,2.1164,2.1164,2.1169,2.1165,2.1164,2.1164,2.1164,2.1163,0,2.0975,2.0982,2.1018,2.1035,2.104,2.1063,2.1077,2.1095,2.1101,2.1127,2.1133,2.1141,2.1163,2.1166,2.1192,2.1193,2.1228,2.1225,2.1223,2.1222,2.1243,2.124,2.1314,2.1324,2.1264,2.1264,2.1265,0,2.1007,2.103,2.105,2.1064,2.1074,2.1097,2.1111,2.1114,2.1128,2.1148,2.1164,2.1187,2.1204,2.1241,2.1248,2.1267,2.1264,2.1289,2.1266,2.1266,2.1262,2.126,2.1261,2.1292,2.1293,2.1293,2.1294,0,2.1062,2.1065,2.1086,2.1109,2.1126,2.1144,2.116,2.1172,2.1177,2.1193,2.1217,2.1231,2.1259,2.128,2.13,2.1308,2.1301,2.1301,2.1307,2.1306,2.1303,2.1303,2.1232,2.1299,2.1298,2.1298,2.1298,2.1297,2.1101,2.112,2.1137,2.1161,2.1174,2.119,2.1209,2.1217,2.1237,2.126,2.1261,2.1287,2.1301,2.1327,2.1336,2.1356,2.1347,2.1356,2.1358,2.1359,2.1361,2.1302,2.1359,2.1359,2.1359,2.1359,2.1359,0,2.1154,2.1165,2.1187,2.1211,2.123,2.1224,2.1242,2.1258,2.1281,2.1296,2.1314,2.1341,2.1362,2.1372,2.1392,2.1406,2.1403,2.1411,2.1409,2.141,2.1368,2.136,2.1413,2.1413,2.1413,2.1413,2.1413,2.1412,2.1184,2.1216,2.1221,2.1259,2.127,2.1296,2.1307,2.1321,2.1333,2.1363,2.1382,2.1388,2.14,2.1422,2.1441,2.1443,2.145,2.1459,2.1459,2.1419,2.1413,2.1408,2.14,2.1461,2.1461,2.1499,2.15,2.15]},{"header":{"parameterUnit":"m.s-1","parameterCategory":1,"la1":30.2991,"la2":30.254,"lo1":-89.0895,"lo2":-89.0444,"dy":0.0017,"dx":0.0017,"nx":28,"ny":28,"refTime":"2025-09-05T21:00:00:Z","depth":0,"parameterNumber":3,"parameterNumberName":"V-component_of_WINDS"},"data":[0,0,0,0,0,0,0,0,0,0,0,0,0,0,0,0,0,0,0,0,0,0,0,0,0,0,0,0,0,0,0,0,0,0,0,0,0,0,0,0,0,0,0,0,0,0,0,0,0,0,0,0,0,0,0,0,0,0,1.6911,1.6912,0,1.699,1.6991,1.6992,1.7016,1.7016,1.7016,1.7015,1.7089,1.7091,1.7093,0,0,0,0,0,0,0,0,0,0,0,0,0,1.6776,1.6779,1.6911,1.6912,1.6913,1.699,1.6991,1.6992,1.7016,1.7016,1.7016,1.7015,1.7088,1.7091,1.7093,0,0,0,0,0,0,0,0,0,0,0,0,0,1.6842,1.6779,1.6911,1.6935,1.6938,1.6989,1.6991,1.6992,1.7017,1.7016,1.7015,1.7015,1.7087,1.709,1.7094,1.7125,0,0,1.7104,1.7106,0,0,0,0,0,0,0,0,1.6839,1.6847,1.6931,1.6934,1.6937,1.6993,1.697,1.7036,1.7017,1.6986,1.7015,1.7015,1.7057,1.7063,1.7078,1.7129,1.7132,1.7104,1.7107,1.7108,1.7109,0,0,0,0,0,0,0,1.6834,1.6844,1.6942,1.6932,1.6936,1.6939,1.6948,1.6983,1.7023,1.6989,1.6991,1.7,1.7058,1.7075,1.708,1.7133,1.7104,1.7107,1.711,1.7111,1.7212,1.7212,0,0,0,0,0,0,1.6826,1.684,1.694,1.6945,1.6886,1.6942,1.6952,1.6975,1.7023,1.703,1.7001,1.7001,1.7069,1.7076,1.7083,1.7123,1.7108,1.7111,1.7113,1.7211,1.7212,1.7212,0,0,0,0,0,0,1.6823,1.6835,1.6937,1.6893,1.6906,1.6945,1.6971,1.6977,1.6994,1.7032,1.7039,1.7011,1.7069,1.7078,1.7115,1.7125,1.7113,1.7116,1.721,1.7211,1.7212,1.7202,0,0,0,0,0,0,1.6819,1.6834,1.6848,1.6893,1.6909,1.6969,1.6972,1.6979,1.7,1.7002,1.7043,1.7049,1.7069,1.7109,1.7118,1.713,1.7118,1.7209,1.7211,1.7212,1.7201,1.7202,1.7203,0,0,0,0,0,1.6815,1.6841,1.6849,1.686,1.6927,1.697,1.6978,1.7003,1.7001,1.7015,1.7039,1.7048,1.7123,1.7113,1.7123,1.7136,1.7209,1.721,1.7212,1.7201,1.7202,1.7203,0,0,0,0,0,0,1.6793,1.6847,1.6856,1.6898,1.693,1.6974,1.6992,1.7003,1.7034,1.7034,1.7061,1.707,1.7104,1.7124,1.7112,1.7168,1.7166,1.7169,1.7155,1.7156,1.7157,1.7151,1.7121,0,0,0,0,0,1.6793,1.6826,1.687,1.6903,1.6918,1.6952,1.6972,1.6988,1.7021,1.7033,1.706,1.709,1.712,1.7139,1.7169,1.7204,1.7213,1.7218,1.7219,1.7219,1.7222,1.7241,1.7244,1.7217,1.7217,1.7217,0,0,1.6794,1.6827,1.6846,1.6899,1.6926,1.6956,1.6963,1.6995,1.7018,1.7037,1.7075,1.7095,1.7129,1.7166,1.7183,1.7183,1.7231,1.7221,1.7221,1.7223,1.7243,1.7245,1.7248,1.7218,1.7218,1.7218,0,0,1.6811,1.684,1.6871,1.6897,1.6938,1.696,1.6967,1.701,1.7025,1.7063,1.7078,1.7104,1.7156,1.718,1.7198,1.7224,1.7233,1.7233,1.7237,1.7256,1.7258,1.726,1.7268,1.7271,1.7235,1.7235,1.7235,0,1.6806,1.6856,1.6884,1.6916,1.6939,1.696,1.699,1.7013,1.706,1.7074,1.7073,1.7139,1.7163,1.7205,1.7211,1.7226,1.7233,1.7228,1.7256,1.7258,1.726,1.7269,1.7272,1.7235,1.7235,1.7235,1.7235,0,1.6847,1.6881,1.69,1.6948,1.6972,1.7003,1.7034,1.7054,1.7068,1.709,1.7127,1.7158,1.7194,1.7205,1.7218,1.7248,1.7247,1.7251,1.7249,1.7262,1.727,1.7274,1.7234,1.7234,1.7234,1.7234,0,0,1.6853,1.6916,1.6923,1.6945,1.6991,1.7016,1.7047,1.7085,1.7101,1.7132,1.7158,1.7201,1.7205,1.7226,1.7242,1.7258,1.7276,1.726,1.7261,1.7261,1.731,1.7307,1.7311,1.7282,1.7283,1.7284,1.7307,0,1.6876,1.6935,1.6961,1.7006,1.7037,1.7058,1.7084,1.7114,1.7135,1.7162,1.7184,1.7214,1.7217,1.723,1.7247,1.727,1.7286,1.7269,1.7304,1.7305,1.7295,1.7315,1.7312,1.7333,1.7311,1.7311,1.7312,0,1.691,1.6944,1.6994,1.7037,1.705,1.7074,1.711,1.7137,1.717,1.7184,1.7208,1.7223,1.7254,1.725,1.7292,1.7279,1.7295,1.7308,1.731,1.7314,1.7309,1.7319,1.734,1.7343,1.7317,1.7317,1.7316,0,1.6909,1.6967,1.7004,1.7022,1.7073,1.7089,1.711,1.7143,1.7164,1.7195,1.7208,1.7241,1.7259,1.7283,1.7306,1.7301,1.7345,1.7343,1.7355,1.7355,1.7364,1.7363,1.7387,1.7374,1.7374,1.7374,1.7374,0,1.6932,1.6961,1.7005,1.7028,1.706,1.7089,1.712,1.7142,1.7171,1.7197,1.7216,1.7239,1.7268,1.7294,1.7312,1.7343,1.7351,1.7361,1.7365,1.736,1.7358,1.737,1.7369,1.7375,1.7375,1.7374,1.7374,0,1.6936,1.6967,1.7009,1.7054,1.7065,1.7088,1.7125,1.7146,1.7168,1.72,1.7209,1.7243,1.7275,1.73,1.7341,1.7352,1.7385,1.739,1.7375,1.7377,1.7388,1.7386,1.7421,1.7426,1.7409,1.7409,1.7409,0,1.6949,1.6972,1.702,1.704,1.7062,1.7093,1.7116,1.7144,1.7165,1.7205,1.7221,1.7255,1.7284,1.7333,1.7359,1.739,1.7396,1.7405,1.74,1.7393,1.7395,1.7394,1.7396,1.7406,1.7406,1.7406,1.7406,0,1.6967,1.6982,1.7014,1.7052,1.7078,1.7108,1.7139,1.7153,1.7186,1.7209,1.7243,1.7266,1.7308,1.7341,1.7375,1.7394,1.7405,1.7408,1.7412,1.7406,1.7396,1.7401,1.7376,1.7406,1.7406,1.7406,1.7406,1.7406,1.6976,1.6998,1.7036,1.7071,1.7097,1.7125,1.7148,1.7173,1.7203,1.7242,1.7256,1.7291,1.7322,1.7369,1.7388,1.7414,1.7415,1.7421,1.7423,1.7424,1.7423,1.7392,1.742,1.742,1.742,1.742,1.742,0,1.6996,1.7021,1.7053,1.7097,1.7124,1.7135,1.7169,1.719,1.7221,1.7251,1.7279,1.7317,1.7349,1.7378,1.741,1.7425,1.7431,1.7433,1.7432,1.7436,1.7421,1.7414,1.7427,1.7427,1.7427,1.7427,1.7427,1.7427,1.7009,1.7047,1.7065,1.7115,1.714,1.7176,1.7194,1.7219,1.7243,1.7287,1.7314,1.7333,1.7362,1.7397,1.7425,1.7433,1.7443,1.7444,1.7452,1.7438,1.7437,1.7436,1.7429,1.7446,1.7446,1.7465,1.7465,1.7466]}]]